Regional Weather Roundup
Issued by NWS Green Bay, WI

Home | Current Version | Previous Version | Text Only | Print | Product List | Glossary On
Versions: 1 2 3 4 5 6 7 8 9 10 11 12 13 14 15 16 17 18 19 20 21 22 23 24 25 26 27 28 29 30 31 32 33 34 35 36 37 38 39 40 41 42 43 44 45 46 47 48 49 50
719
ASUS43 KGRB 170500
RWRGRB

NORTH-CENTRAL AND NORTHEAST WISCONSIN REGIONAL WEATHER ROUNDUP
NATIONAL WEATHER SERVICE GREEN BAY WI
1100 PM CST TUE JAN 16 2018

WIZ005-009-010>012-018-019-170600-
NORTH CENTRAL WISCONSIN

CITY           SKY/WX    TMP DP  RH WIND       PRES   REMARKS
IRONWOOD       FAIR       8   2  76 SW8       30.35F WCI  -4
MANITOWISH WTR NOT AVBL
ARBOR VITAE    NOT AVBL
EAGLE RIVER    FAIR       4   0  83 SW7       30.32F WCI  -9
LAND O LAKES   NOT AVBL
RHINELANDER    FAIR       5   2  87 W7        30.35F WCI  -7
PHILLIPS       FAIR       1  -1  88 SW5       30.39S WCI  -8
ANTIGO         NOT AVBL
TOMAHAWK       NOT AVBL
MERRILL        FAIR       3   1  88 W7        30.42F WCI  -9
$$

WIZ013-073-170600-
NORTHEAST WISCONSIN

CITY           SKY/WX    TMP DP  RH WIND       PRES   REMARKS
IRON MOUNTAIN  FAIR       6  -1  73 CALM      30.34F
MARINETTE      FAIR       5   3  91 W3        30.43F
$$

WIZ017-030-035>037-045-170600-
CENTRAL WISCONSIN

CITY           SKY/WX    TMP DP  RH WIND       PRES   REMARKS
MEDFORD        NOT AVBL
WAUSAU         FAIR       2  -2  83 W8        30.42F WCI -12
MOSINEE        NOT AVBL
MARSHFIELD     FAIR       0  -3  87 W7        30.45S WCI -13
WISC RAPIDS    FAIR       4  -2  76 NW7       30.50S WCI  -8
STEVENS POINT  NOT AVBL
WAUPACA        NOT AVBL
SHAWANO        FAIR      13   8  80 W5        30.45F WCI   6
CLINTONVILLE   NOT AVBL
WAUTOMA        FAIR       5   2  87 W9        30.51R WCI  -9
$$

WIZ038-039-048-051-170600-
FOX VALLEY

CITY           SKY/WX    TMP DP  RH WIND       PRES   REMARKS
NWS GREEN BAY  FAIR      13   7  77 W12       30.46S WCI  -1
APPLETON       CLEAR     10   5  79 W10       30.45S WCI  -3
OSHKOSH        FAIR       9   5  84 W5        30.48S WCI   1
FOND DU LAC    FAIR      11   5  77 W5        30.48F WCI   3
$$

WIZ022-050-052-170600-
EAST CENTRAL WISCONSIN

CITY           SKY/WX    TMP DP  RH WIND       PRES   REMARKS
EPHRAIM        NOT AVBL
WASHINGTON ISL NOT AVBL
STURGEON BAY   FAIR       6   4  91 SW6       30.44F WCI  -4
MANITOWOC      CLOUDY    13   9  84 W7        30.47F WCI   3
SHEBOYGAN      FAIR      12  10  92 W6        30.47F WCI   3
$$

LMZ563-521-522-541>543-170600-
LAKESHORE

STATION/POSITION TIME  TEMP    WIND        PRES    VSBY  WAVE
                       AIR SEA DIR/SP/G                  HT/PER
                 (UTC) (F)     (DEG/KT/KT) (MB)    (MI)  (FT/S)
SHEBOYGAN LKSHOR 0400   15     260/ 11/ 12 1033.4F
KEWAUNEE LKSHORE 0430    4     290/  4/  5 1030.6R
NORTHPORT PIER   0440   11     240/  5/ 13 1029.8F
MENOMINEE LKSHOR 0430   10     210/  5/  6 1030.1F
$$




USA.gov is the U.S. government's official web portal to all federal, state and local government web resources and services.